Powrót do katalogu

TANSEI 1

MS-T1

AktywnyNaukaLEO
NORAD 4952·PAYLOAD·🇯🇵 Japan

Wystrzelony Feb 16, 1971 z Uchinoura Space Center

Loading…

Następne Przeloty (najbliższe 24 godziny)

TLE

ŚwieżeSource: Space-Track

Epoka: Sep 14, 2026, 00:57 UTC

1 04952U 71011A   26257.03992979  .00000095  00000-0  40011-4 0  9994
2 04952  29.6662 248.1465 0079570 343.3774  57.4945 13.58642083760627

Śledź TANSEI 1 w czasie rzeczywistym z AllMySat

Download on the App Store